Погода в Мбужи-Майи

Демократическая Республика Конго     6°09′38″S   23°33′10″E
темп.,
°C
ветер,
м/с
пор.,
м/с
влажн.,
%
обл.,
%
осадки,
мм/ч
давл.,
гПа
погр.,
м
28 ноября, вс
вс2801:00+20ю119692 0.1 101119
04:00+20ю0096100 0.1 101111
07:00+23ю128954 0.2 1013263
10:00+27всв23735 2.0 1011739
13:00+30ююв125731 3.9 10081417
16:00+25ююв0283100 2.0 100762
19:00+20сз1398100 6.7 101190
22:00+20ю1194100 0.6 101212
29 ноября, пн
пн2901:00+19з119599 0.6 101111
04:00+19зсз1195100 0.0 101113
07:00+22ю128638 0.0 1013230
10:00+29ююз115929 0.0 1012965
13:00+32св114797 0.0 10082200
16:00+29в116496 0.0 100722
19:00+24вюв1177100 0.0 100818
22:00+22сз1184100 0.0 101012
30 ноября, вт
вт3001:00+20зсз229489 0.6 101040
04:00+20зсз239616 0.0 101188
07:00+24юз128176 0.1 1012280
10:00+26зюз127073 0.0 1011639
13:00+31юз125371 0.6 10071706
16:00+24с61081100 1.4 1006387
19:00+19ссв1198100 6.1 101130
22:00+20зюз1397100 1.9 101292
1 декабря, ср
ср101:00+20з1497100 2.3 1010146
04:00+20зсз4996100 0.5 1010287
07:00+22зсз1388100 0.5 1012347
10:00+26з237080 0.0 10121066
13:00+26з117681 4.3 1008746
16:00+25сз128497 3.4 1008238
19:00+21зсз2293100 5.0 101035
22:00+21зюз1194100 0.1 101211
2 декабря, чт
чт201:00+20зюз2697100 1.2 1010167
04:00+20юз1195100 0.0 101044
07:00+22з2588100 0.0 1012304
10:00+26юз2366100 0.0 1011973
13:00+29з2258100 0.5 10081652
16:00+23вюв2291100 2.0 100750
19:00+21ссз3696100 5.4 1010169
22:00+20св1299100 3.8 1012113